#timestamp,LO_Frequency,Hit,StdDev 
1505091615.0,286046999.9,N,1.4
1505091615.9,286046999.9,N,1.3
1505091635.8,286047000.7,N,1.3
1505091655.6,286047001.6,N,1.2
1505091675.5,286047002.8,N,1.3
1505091695.3,286047002.5,N,1.3
1505091715.1,286047002.5,N,1.4
1505091735.9,286047004.3,Y,0.0
1505091755.7,286047000.5,P,0.3
1505091775.6,286047000.7,N,0.2
1505091795.4,286047000.6,N,0.2
1505091815.2,286046998.5,Y,0.0
1505091835.1,286046998.2,P,1.3
1505091836.0,286046998.2,N,1.2
1505091855.8,286046999.0,N,1.0
1505091875.7,286047001.1,N,1.2
1505091895.5,286046999.1,N,1.1
1505091915.3,286046996.7,N,1.4
1505091935.2,286046997.2,N,1.4
1505091955.0,286046999.6,N,1.4
1505091955.9,286046999.6,N,1.3
1505091975.8,286046999.2,N,1.3
1505091995.6,286046998.6,N,1.2
1505092015.4,286046999.5,N,1.2
1505092035.3,286046999.1,N,1.1
1505092055.1,286046999.1,N,1.1
1505092075.9,286046998.3,N,1.1
1505092095.7,286046998.4,N,1.1
1505092115.5,286046998.1,N,1.0
1505092135.4,286046998.2,N,1.0
1505092155.2,286046998.3,N,1.0
1505092175.1,286046998.8,N,1.0
1505092176.0,286046998.8,N,1.0
1505092195.8,286046998.2,N,0.9
1505092215.6,286046999.3,N,0.9
1505092235.5,286046998.8,N,0.9
1505092255.3,286046998.3,N,0.9
1505092275.2,286046998.6,N,0.9
1505092295.9,286047000.8,N,0.9
1505092315.7,286046998.4,N,0.9
1505092335.6,286046998.2,N,0.9
1505092355.4,286047000.5,N,0.9
1505092375.3,286047000.0,N,0.9
1505092395.1,286046998.3,N,0.9
1505092396.0,286046998.3,N,0.9
1505092415.8,286046998.4,N,0.8
1505092435.7,286047001.1,N,0.9
1505092455.5,286047000.7,N,0.9
1505092475.4,286047000.6,N,0.9
1505092495.2,286046998.2,N,0.9
1505092515.0,286046998.6,N,0.9
1505092515.9,286046998.6,N,0.9
1505092535.8,286047001.0,N,1.0
1505092555.6,286047001.1,N,1.0
1505092575.5,286047000.8,N,1.1
1505092595.3,286047000.6,N,1.1
1505092615.1,286047000.9,N,1.1
1505092635.9,286046999.7,N,1.1
1505092655.7,286047002.3,N,1.2
1505092675.6,286047002.8,N,1.3
1505092695.4,286047002.7,N,1.4
1505092715.2,286047002.2,N,1.5
1505092735.1,286047000.2,N,1.5
1505092736.0,286047000.2,N,1.4
1505092755.8,286047000.2,N,1.4
1505092775.7,286047000.5,N,1.4
1505092795.5,286047000.8,N,1.4
1505092815.3,286046998.5,N,1.4
1505092835.2,286046998.2,N,1.4
1505092855.0,286046998.1,N,1.4
1505092855.9,286046998.1,N,1.4
1505092875.8,286046998.8,N,1.4
1505092895.6,286046998.7,N,1.5
1505092915.4,286047000.6,N,1.4
1505092935.3,286046998.2,N,1.4
1505092955.1,286046998.7,N,1.4
1505092975.9,286046998.7,N,1.4
1505092995.7,286046996.7,N,1.5
1505093015.5,286046999.6,N,1.5
1505093035.4,286046997.1,N,1.6
1505093055.2,286046997.2,N,1.6
1505093075.0,286046997.2,N,1.7
1505093076.0,286046997.2,N,1.7
1505093095.8,286046997.4,N,1.7
1505093115.6,286046997.5,N,1.8
1505093135.5,286046994.9,N,1.9
1505093155.3,286046995.8,N,2.0
1505093175.2,286046995.5,N,2.1
1505093195.9,286046996.4,N,2.0
1505093215.7,286046993.9,Y,0.0
1505093235.6,286046995.5,P,1.6
1505093255.4,286046995.4,N,1.5
1505093275.3,286046995.5,P,1.4
1505093295.1,286046996.2,N,1.2
1505093315.8,286046995.6,Y,0.0
1505093335.7,286046998.3,P,1.0
1505093355.5,286046996.5,P,0.9
1505093375.4,286046997.0,P,0.8
1505093395.2,286046997.1,Y,0.0
1505093415.1,286047000.0,P,1.5
1505093416.0,286047000.0,N,1.4
1505093435.8,286046998.5,N,1.2
1505093455.6,286047001.2,N,1.4
1505093475.5,286047000.4,N,1.4
1505093495.3,286047000.3,N,1.3
1505093515.2,286047002.7,N,1.6
1505093535.9,286047000.5,N,1.5
1505093555.7,286047000.6,N,1.4
1505093575.6,286046998.5,N,1.4
1505093595.4,286046999.0,N,1.4
1505093615.3,286046999.1,N,1.4
1505093635.1,286046998.9,N,1.3
1505093636.0,286046998.9,N,1.3
1505093655.8,286046999.6,N,1.3
1505093675.7,286046999.4,N,1.2
1505093695.5,286046997.0,N,1.4
1505093715.4,286046996.6,N,1.5
1505093735.2,286046998.6,N,1.4
1505093755.0,286046998.2,N,1.4
1505093755.9,286046998.2,N,1.4
1505093775.8,286046999.0,N,1.4
1505093795.6,286046998.3,N,1.4
1505093815.5,286046998.7,N,1.3
1505093835.3,286046998.9,N,1.3
1505093855.1,286046996.7,N,1.4
1505093875.9,286046999.5,N,1.4
1505093895.7,286046999.6,N,1.3
1505093915.6,286046997.1,N,1.4
1505093935.4,286046996.5,N,1.4
1505093955.2,286046999.2,N,1.4
1505093975.1,286046997.0,N,1.4
1505093976.0,286046997.0,N,1.4
1505093995.8,286046999.6,N,1.4
1505094015.7,286046999.6,N,1.4
1505094035.5,286046998.9,N,1.3
1505094055.3,286046999.4,N,1.1
1505094075.2,286046997.1,N,1.1
1505094095.0,286046996.9,N,1.1
1505094095.9,286046996.9,N,1.1
1505094115.8,286046995.0,Y,0.0
1505094135.6,286046996.8,P,0.8
1505094155.4,286046997.1,P,0.7
1505094175.3,286046997.8,P,0.6
1505094195.1,286046997.3,Y,0.0
1505094215.9,286047000.0,P,1.2
1505094235.7,286047000.1,N,1.2
1505094255.5,286047011.9,P,5.6
1505094275.4,286047000.8,N,5.0
1505094295.2,286047000.0,N,4.7
1505094315.1,286047000.4,N,4.3
1505094316.0,286047000.4,N,4.1
1505094335.8,286046998.1,N,4.0
1505094355.6,286046998.1,N,3.9
1505094375.5,286046998.5,N,3.8
1505094395.3,286046998.2,N,3.7
1505094415.2,286047001.1,N,3.5
1505094435.9,286047001.2,N,3.4
1505094455.7,286047001.2,N,3.3
1505094475.6,286046998.6,N,3.2
1505094495.4,286046998.1,N,3.2
1505094515.3,286046998.4,N,3.1
1505094535.1,286046998.1,N,3.1
1505094536.0,286046998.1,N,3.0
1505094555.8,286047001.1,N,2.9
1505094575.7,286046998.4,N,2.9
1505094595.5,286046999.2,N,2.8
1505094615.4,286046997.1,N,2.8
1505094635.2,286046999.2,N,2.8
1505094655.0,286046997.2,N,2.8
1505094655.9,286046997.2,N,2.8
1505094675.8,286046996.6,N,2.8
1505094695.6,286046999.6,N,2.7
1505094715.5,286046999.5,N,2.7
1505094735.3,286046998.8,N,2.6
1505094755.1,286046998.4,N,2.7
1505094775.9,286046998.8,N,2.7
1505094795.7,286046998.8,N,1.3
1505094815.5,286046999.4,N,1.2
1505094835.4,286046998.1,N,1.2
1505094855.2,286046998.9,N,1.2
1505094875.1,286046998.7,N,1.2
1505094876.0,286046998.7,N,1.2
1505094895.8,286046998.9,N,1.2
1505094915.7,286046999.6,N,1.2
1505094935.5,286046996.5,Y,0.0
1505094955.3,286046998.3,P,0.3
1505094975.2,286046998.4,P,0.2
1505094995.0,286046998.9,P,0.3
1505094995.9,286046998.9,Y,0.0
1505095015.8,286047001.0,P,1.2
1505095035.6,286047000.1,N,1.0
1505095055.4,286047000.5,N,0.9
1505095075.3,286047000.9,N,0.9
1505095095.1,286047000.5,N,0.8
1505095115.9,286046999.8,N,0.8
1505095135.7,286047000.5,N,0.7
1505095155.5,286047002.0,N,0.9
1505095175.4,286047002.3,N,1.0
1505095195.2,286047002.4,N,1.1
